Weather History for KHLC - August, 2013

Change the Weather History Date:

Friday, August 9, 2013

  Actual Average Record
Temperature  
Mean Temperature 72 °F 78 °F  
Max Temperature 82 °F 91 °F 112 °F (1937)
Min Temperature 61 °F 65 °F 46 °F (1989)
Cooling Degree Days 6    
Growing Degree Days 21 (Base 50)    
Moisture  
Dew Point 60 °F    
Average Humidity 72    
Maximum Humidity 97    
Minimum Humidity 42    
Precipitation  
Precipitation 0.00 in 0.11 in 1.24 in (2008)
Month to date precipitation 0.61 0.87  
Year to date precipitation 12.79 15.84  
Sea Level Pressure  
Sea Level Pressure 30.08 in    
Wind  
Wind Speed 5 mph (ESE)    
Max Wind Speed 12 mph    
Max Gust Speed -    
Visibility 10 miles    
Events      
T = Trace of Precipitation, MM = Missing Value Source: NWS Daily Summary

Daily Weather History Graph

Daily Weather History Graph

Search for Another Location

Airport or City:

Trip Planner

Search our weather history database for the weather conditions in past years. The results will help you decide how hot, cold, wet, or windy it might be!

Date:

Astronomy

Aug. 09, 2013 Rise Set
Actual Time 6:46 AM CDT 8:42 PM CDT
Civil Twilight 6:17 AM CDT 9:11 PM CDT
Nautical Twilight 5:41 AM CDT 9:46 PM CDT
Astronomical Twilight 5:03 AM CDT 10:24 PM CDT
Moon 9:33 AM CDT (8/9) 9:54 PM CDT (8/9)
Length of Visible Light 14h 53m
Length of Day
13h 55m
Waxing Crescent, 8% of the Moon is Illuminated
Aug 9
Waxing Crescent
Aug 14
First Quarter
Aug 20
Full
Aug 28
Last Quarter
Sep 5
New

Hourly Weather History & Observations

Time (CDT) Temp. Heat Index Dew Point Humidity Pressure Visibility Wind Dir Wind Speed Gust Speed Precip Events Conditions
12:53 AM 63.0 °F - 62.1 °F 97% 30.05 in 10.0 mi NNW 5.8 mph - N/A   Clear
2:53 AM 62.1 °F - 61.0 °F 96% 30.03 in 10.0 mi Calm Calm - N/A   Clear
3:53 AM 61.0 °F - 60.1 °F 97% 30.05 in 10.0 mi NW 3.5 mph - N/A   Clear
4:53 AM 63.0 °F - 62.1 °F 97% 30.04 in 10.0 mi Calm Calm - N/A   Overcast
5:53 AM 63.0 °F - 62.1 °F 97% 30.04 in 10.0 mi Calm Calm - N/A   Clear
6:53 AM 63.0 °F - 62.1 °F 97% 30.06 in 8.0 mi Calm Calm - N/A   Clear
7:53 AM 64.0 °F - 63.0 °F 96% 30.07 in 8.0 mi Calm Calm - N/A   Clear
8:53 AM 66.0 °F - 63.0 °F 90% 30.09 in 10.0 mi North 10.4 mph - N/A   Clear
9:53 AM 71.1 °F - 64.9 °F 81% 30.09 in 10.0 mi North 9.2 mph - N/A   Clear
10:53 AM 73.9 °F - 64.0 °F 71% 30.09 in 10.0 mi NE 9.2 mph - N/A   Overcast
11:53 AM 75.9 °F - 62.1 °F 62% 30.09 in 10.0 mi NE 9.2 mph - N/A   Overcast
12:53 PM 80.1 °F 80.7 °F 59.0 °F 48% 30.09 in 10.0 mi East 8.1 mph - N/A   Partly Cloudy
1:53 PM 80.1 °F 80.6 °F 57.9 °F 47% 30.09 in 10.0 mi ESE 5.8 mph - N/A   Partly Cloudy
2:53 PM 81.0 °F 81.3 °F 59.0 °F 47% 30.07 in 10.0 mi SE 8.1 mph - N/A   Clear
3:53 PM 81.0 °F 80.8 °F 55.9 °F 42% 30.07 in 10.0 mi ESE 9.2 mph - N/A   Clear
4:53 PM 81.0 °F 81.0 °F 57.0 °F 44% 30.07 in 10.0 mi SE 11.5 mph - N/A   Clear
5:53 PM 81.0 °F 80.8 °F 55.9 °F 42% 30.06 in 10.0 mi ESE 10.4 mph - N/A   Clear
6:53 PM 80.1 °F 80.7 °F 59.0 °F 48% 30.06 in 10.0 mi SE 9.2 mph - N/A   Partly Cloudy
7:53 PM 77.0 °F - 60.1 °F 56% 30.07 in 10.0 mi South 5.8 mph - N/A   Clear
8:53 PM 72.0 °F - 59.0 °F 64% 30.10 in 10.0 mi SSE 5.8 mph - N/A   Clear
9:53 PM 68.0 °F - 60.1 °F 76% 30.14 in 10.0 mi South 3.5 mph - N/A   Clear
10:53 PM 66.9 °F - 60.1 °F 79% 30.16 in 10.0 mi SW 5.8 mph - N/A   Clear
11:53 PM 66.0 °F - 60.1 °F 81% 30.15 in 10.0 mi SW 4.6 mph - N/A   Clear